Weather History for KMFE - December, 2012

Change the Weather History Date:

Sunday, December 30, 2012

  Actual Average Record
Temperature  
Mean Temperature 57 °F 60 °F  
Max Temperature 69 °F 70 °F 89 °F (1945)
Min Temperature 44 °F 50 °F 22 °F (1920)
Degree Days  
Heating Degree Days 8 7  
Month to date heating degree days 88 171  
Since 1 July heating degree days 103 231  
Cooling Degree Days 0 2  
Month to date cooling degree days 167 80  
Year to date cooling degree days 5256 4449  
Growing Degree Days 6 (Base 50)    
Moisture  
Dew Point 39 °F    
Average Humidity 53    
Maximum Humidity 67    
Minimum Humidity 38    
Precipitation  
Precipitation 0.00 in 0.04 in 1.73 in (2013)
Month to date precipitation T 1.15  
Year to date precipitation 17.47 22.16  
Sea Level Pressure  
Sea Level Pressure 30.26 in    
Wind  
Wind Speed 6 mph (ENE)    
Max Wind Speed 15 mph    
Max Gust Speed 20 mph    
Visibility 10 miles    
Events      
T = Trace of Precipitation, MM = Missing Value Source: NWS Daily Summary

Daily Weather History Graph

Daily Weather History Graph

Search for Another Location

Airport or City:

Trip Planner

Search our weather history database for the weather conditions in past years. The results will help you decide how hot, cold, wet, or windy it might be!

Date:

Astronomy

Dec. 30, 2012 Rise Set
Actual Time 7:20 AM CST 5:51 PM CST
Civil Twilight 6:54 AM CST 6:16 PM CST
Nautical Twilight 6:26 AM CST 6:45 PM CST
Astronomical Twilight 5:57 AM CST 7:13 PM CST
Moon 8:09 PM CST (12/30) 8:42 AM CST (12/30)
Length of Visible Light 11h 22m
Length of Day
10h 31m
Waning Gibbous, 95% of the Moon is Illuminated
Dec 30
Waning Gibbous
Jan 4
Last Quarter
Jan 11
New
Jan 18
First Quarter
Jan 26
Full

Hourly Weather History & Observations

Time (CST) Temp. Windchill Dew Point Humidity Pressure Visibility Wind Dir Wind Speed Gust Speed Precip Events Conditions
12:53 AM 45.0 °F - 30.9 °F 58% 30.41 in 10.0 mi Calm Calm - N/A   Clear
1:53 AM 46.0 °F - 27.0 °F 47% 30.40 in 10.0 mi Calm Calm - N/A   Clear
2:53 AM 46.9 °F - 26.1 °F 44% 30.39 in 10.0 mi North 5.8 mph - N/A   Clear
3:53 AM 46.0 °F 42.5 °F 23.0 °F 40% 30.38 in 10.0 mi North 6.9 mph - N/A   Clear
4:53 AM 45.0 °F 41.2 °F 23.0 °F 42% 30.36 in 10.0 mi North 6.9 mph - N/A   Clear
5:53 AM 44.1 °F 38.6 °F 24.1 °F 45% 30.36 in 10.0 mi North 10.4 mph - N/A   Clear
6:53 AM 44.1 °F 38.6 °F 24.1 °F 45% 30.36 in 10.0 mi NNE 10.4 mph - N/A   Clear
7:53 AM 45.0 °F 40.1 °F 26.1 °F 48% 30.36 in 10.0 mi North 9.2 mph - N/A   Clear
8:53 AM 46.9 °F - 28.0 °F 48% 30.38 in 10.0 mi North 5.8 mph - N/A   Partly Cloudy
9:53 AM 50.0 °F - 30.9 °F 48% 30.37 in 10.0 mi North 4.6 mph - N/A   Partly Cloudy
10:53 AM 54.0 °F - 34.0 °F 47% 30.35 in 10.0 mi North 5.8 mph - N/A   Overcast
11:53 AM 57.9 °F - 37.0 °F 46% 30.32 in 10.0 mi North 3.5 mph - N/A   Overcast
12:53 PM 63.0 °F - 41.0 °F 45% 30.28 in 10.0 mi Variable 4.6 mph - N/A   Overcast
1:53 PM 66.0 °F - 43.0 °F 43% 30.22 in 10.0 mi Calm Calm - N/A   Overcast
2:53 PM 66.9 °F - 44.1 °F 44% 30.20 in 10.0 mi Calm Calm - N/A   Overcast
3:53 PM 68.0 °F - 44.1 °F 42% 30.17 in 10.0 mi Variable 3.5 mph - N/A   Overcast
4:53 PM 69.1 °F - 46.0 °F 44% 30.17 in 10.0 mi SSE 10.4 mph - N/A   Overcast
5:53 PM 68.0 °F - 48.9 °F 50% 30.17 in 10.0 mi SSE 9.2 mph - N/A   Overcast
6:53 PM 66.9 °F - 51.1 °F 57% 30.17 in 10.0 mi SE 13.8 mph - N/A   Overcast
7:53 PM 66.9 °F - 52.0 °F 59% 30.16 in 10.0 mi ESE 9.2 mph - N/A   Overcast
8:53 PM 63.0 °F - 52.0 °F 67% 30.16 in 10.0 mi ESE 6.9 mph - N/A   Scattered Clouds
9:53 PM 64.0 °F - 53.1 °F 67% 30.16 in 10.0 mi SE 5.8 mph - N/A   Overcast
10:53 PM 63.0 °F - 52.0 °F 67% 30.15 in 10.0 mi SSE 3.5 mph - N/A   Overcast
11:15 PM 62.6 °F - 51.8 °F 68% 30.14 in 10.0 mi Calm Calm - N/A   Overcast
11:26 PM 62.6 °F - 51.8 °F 68% 30.14 in 10.0 mi Calm Calm - N/A   Overcast
11:53 PM 63.0 °F - 52.0 °F 67% 30.12 in 10.0 mi ESE 3.5 mph - N/A   Overcast